Change the Weather History Date:

Sunday, December 23, 2012

  Actual Average Record
Temperature  
Mean Temperature 52 °F -  
Max Temperature 65 °F 60 °F 76 °F (2014)
Min Temperature 38 °F 40 °F 34 °F (2013)
Degree Days  
Heating Degree Days 14    
Growing Degree Days 2 (Base 50)    
Moisture  
Dew Point 47 °F    
Average Humidity 80    
Maximum Humidity 100    
Minimum Humidity 59    
Precipitation  
Precipitation 0.00 in - - ()
Sea Level Pressure  
Sea Level Pressure 30.13 in    
Wind  
Wind Speed 2 mph (South)    
Max Wind Speed 14 mph    
Max Gust Speed 17 mph    
Visibility 10 miles    
Events Rain    
Averages and records for this station are not official NWS values.
T = Trace of Precipitation, MM = Missing Value Source: NWS Daily Summary

Daily Weather History Graph

Daily Weather History Graph

Search for Another Location

Airport or City:

Trip Planner

Search our weather history database for the weather conditions in past years. The results will help you decide how hot, cold, wet, or windy it might be!

Date:

Astronomy

Dec. 23, 2012 Rise Set
Actual Time 6:54 AM CST 5:03 PM CST
Civil Twilight 6:27 AM CST 5:30 PM CST
Nautical Twilight 5:57 AM CST 6:00 PM CST
Astronomical Twilight 5:27 AM CST 6:29 PM CST
Moon 1:47 PM CST (12/23) 2:45 AM CST (12/23)
Length of Visible Light 11h 02m
Length of Day
10h 09m
Waxing Gibbous, 82% of the Moon is Illuminated
Dec 23
Waxing Gibbous
Dec 28
Full
Jan 4
Last Quarter
Jan 11
New
Jan 18
First Quarter

Hourly Weather History & Observations

Time (CST) Temp. Dew Point Humidity Pressure Visibility Wind Dir Wind Speed Gust Speed Precip Events Conditions
12:15 AM 39.0 °F 39.0 °F 100% 30.25 in 10.0 mi Calm Calm - N/A   Unknown
12:35 AM 39.2 °F 39.2 °F 100% 30.25 in 10.0 mi Calm Calm - N/A   Unknown
12:55 AM 38.5 °F 38.5 °F 100% 30.24 in 10.0 mi Calm Calm - N/A   Unknown
1:15 AM 39.2 °F 39.2 °F 100% 30.23 in 10.0 mi Calm Calm - N/A   Unknown
1:35 AM 39.2 °F 39.2 °F 100% 30.23 in 10.0 mi Calm Calm - N/A   Unknown
1:55 AM 38.8 °F 38.8 °F 100% 30.23 in 10.0 mi Calm Calm - N/A   Unknown
2:15 AM 39.7 °F 39.7 °F 100% 30.23 in 10.0 mi Calm Calm - N/A   Unknown
2:35 AM 39.4 °F 39.4 °F 100% 30.23 in 10.0 mi Calm Calm - N/A   Unknown
2:55 AM 39.6 °F 39.6 °F 100% 30.23 in 10.0 mi Calm Calm - N/A   Unknown
3:15 AM 40.1 °F 40.1 °F 100% 30.23 in 10.0 mi Calm Calm - N/A   Unknown
3:35 AM 41.5 °F 41.5 °F 100% 30.22 in 10.0 mi Calm Calm - N/A   Unknown
3:55 AM 41.0 °F 41.0 °F 100% 30.22 in 10.0 mi Calm Calm - N/A   Unknown
4:15 AM 41.2 °F 41.2 °F 100% 30.22 in 10.0 mi Calm Calm - N/A   Unknown
4:35 AM 41.9 °F 41.9 °F 100% 30.21 in 10.0 mi Calm Calm - N/A   Unknown
4:55 AM 42.1 °F 42.1 °F 100% 30.21 in 10.0 mi Calm Calm - N/A   Unknown
5:15 AM 42.1 °F 42.1 °F 100% 30.22 in 10.0 mi Calm Calm - N/A   Unknown
5:35 AM 42.4 °F 42.4 °F 100% 30.21 in 10.0 mi Calm Calm - N/A   Unknown
5:55 AM 43.2 °F 43.2 °F 100% 30.21 in 10.0 mi Calm Calm - N/A   Unknown
6:15 AM 43.7 °F 43.7 °F 100% 30.22 in 10.0 mi Calm Calm - N/A   Unknown
6:35 AM 43.7 °F 43.7 °F 100% 30.22 in 10.0 mi Calm Calm - N/A   Unknown
6:55 AM 44.1 °F 44.1 °F 100% 30.21 in 10.0 mi Calm Calm - N/A   Unknown
7:15 AM 44.6 °F 43.5 °F 96% 30.21 in 10.0 mi Calm Calm - N/A   Unknown
7:55 AM 46.2 °F 46.2 °F 100% 30.20 in 10.0 mi Calm Calm - N/A   Unknown
8:15 AM 46.6 °F 46.6 °F 100% 30.21 in 10.0 mi Calm Calm - N/A   Unknown
8:35 AM 47.8 °F 46.8 °F 96% 30.21 in 10.0 mi Calm Calm - N/A   Unknown
8:55 AM 48.0 °F 44.2 °F 87% 30.21 in 10.0 mi Calm Calm - N/A   Unknown
9:15 AM 49.6 °F 42.4 °F 76% 30.21 in 10.0 mi Calm Calm - N/A   Unknown
9:35 AM 51.4 °F 43.5 °F 74% 30.21 in 10.0 mi Calm Calm - N/A   Unknown
9:55 AM 54.7 °F 44.6 °F 69% 30.21 in 10.0 mi SSE 4.6 mph - N/A   Unknown
10:15 AM 57.2 °F 44.1 °F 62% 30.20 in 10.0 mi SSE 4.6 mph - N/A   Unknown
10:55 AM 58.5 °F 44.8 °F 60% 30.18 in 10.0 mi SSE 5.8 mph - N/A   Unknown
11:15 AM 59.0 °F 45.5 °F 61% 30.17 in 10.0 mi SSE 8.1 mph - N/A   Clear
11:35 AM 60.1 °F 45.9 °F 59% 30.16 in 10.0 mi South 6.9 mph - N/A   Scattered Clouds
11:55 AM 60.8 °F 46.2 °F 59% 30.14 in 10.0 mi South 10.4 mph - N/A   Unknown
12:15 PM 61.3 °F 46.8 °F 59% 30.13 in 10.0 mi South 4.6 mph - N/A   Unknown
12:35 PM 61.9 °F 47.5 °F 59% 30.12 in 10.0 mi South 5.8 mph - N/A   Unknown
12:55 PM 62.1 °F 47.5 °F 59% 30.11 in 10.0 mi SSE 8.1 mph - N/A   Unknown
1:15 PM 62.6 °F 48.2 °F 59% 30.10 in 10.0 mi South 5.8 mph - N/A   Mostly Cloudy
1:55 PM 63.5 °F 49.3 °F 60% 30.08 in 10.0 mi South 3.5 mph - N/A   Scattered Clouds
2:15 PM 64.4 °F 50.5 °F 61% 30.07 in 10.0 mi South 8.1 mph - N/A   Unknown
2:35 PM 64.6 °F 51.1 °F 62% 30.07 in 10.0 mi South 8.1 mph - N/A Rain Light Rain
2:55 PM 64.6 °F 51.1 °F 62% 30.06 in 10.0 mi South 4.6 mph - N/A   Unknown
3:15 PM 64.9 °F 51.6 °F 62% 30.05 in 10.0 mi South 6.9 mph - N/A   Unknown
3:35 PM 65.3 °F 51.8 °F 62% 30.05 in 10.0 mi South 13.8 mph 17.3 mph N/A   Unknown
3:55 PM 64.9 °F 52.2 °F 63% 30.05 in 10.0 mi South 6.9 mph - N/A   Unknown
4:15 PM 64.6 °F 52.0 °F 64% 30.05 in 10.0 mi South 8.1 mph - N/A   Unknown
4:55 PM 64.2 °F 52.2 °F 65% 30.03 in 10.0 mi South 5.8 mph - N/A   Unknown
5:15 PM 63.5 °F 52.3 °F 67% 30.03 in 10.0 mi South 6.9 mph - N/A   Unknown
5:35 PM 63.3 °F 52.7 °F 68% 30.04 in 10.0 mi South 9.2 mph - N/A   Unknown
5:55 PM 62.4 °F 52.3 °F 70% 30.03 in 10.0 mi South 6.9 mph - N/A   Unknown
6:15 PM 61.5 °F 52.2 °F 71% 30.03 in 10.0 mi SSE 6.9 mph - N/A   Unknown
6:35 PM 61.2 °F 52.2 °F 72% 30.03 in 10.0 mi SSE 8.1 mph - N/A   Unknown
6:55 PM 60.8 °F 52.3 °F 74% 30.03 in 10.0 mi South 5.8 mph - N/A   Unknown
7:15 PM 60.8 °F 52.3 °F 74% 30.03 in 10.0 mi SSE 5.8 mph - N/A   Unknown
7:35 PM 60.3 °F 52.3 °F 75% 30.03 in 10.0 mi SSE 9.2 mph - N/A   Unknown
7:55 PM 59.4 °F 52.3 °F 78% 30.03 in 10.0 mi SSE 6.9 mph - N/A   Unknown
8:15 PM 59.7 °F 52.5 °F 77% 30.03 in 10.0 mi South 8.1 mph - N/A   Unknown
8:35 PM 59.9 °F 52.7 °F 77% 30.03 in 10.0 mi South 6.9 mph - N/A   Unknown
8:55 PM 59.9 °F 52.9 °F 78% 30.03 in 10.0 mi South 5.8 mph - N/A   Unknown
9:15 PM 59.5 °F 52.9 °F 79% 30.02 in 10.0 mi South 5.8 mph - N/A   Unknown
9:35 PM 60.3 °F 53.1 °F 77% 30.02 in 10.0 mi South 5.8 mph - N/A   Unknown
9:55 PM 61.2 °F 53.6 °F 76% 30.02 in 10.0 mi South 5.8 mph - N/A   Unknown
10:15 PM 62.6 °F 54.0 °F 73% 30.02 in 10.0 mi South 6.9 mph - N/A   Unknown
10:35 PM 61.9 °F 54.1 °F 76% 30.01 in 10.0 mi South 8.1 mph - N/A   Unknown
10:55 PM 61.5 °F 54.1 °F 77% 30.00 in 10.0 mi South 5.8 mph - N/A   Unknown
11:15 PM 60.8 °F 54.0 °F 78% 30.00 in 10.0 mi South 5.8 mph - N/A   Unknown
11:35 PM 60.8 °F 54.0 °F 78% 30.00 in 10.0 mi SSW 6.9 mph - N/A   Unknown
11:55 PM 60.4 °F 54.0 °F 79% 30.00 in 10.0 mi SSW 5.8 mph - N/A   Unknown